Terminal Aerodrome Forecast
Issued by NWS

Home | Current Version | Previous Version | Graphics & Text | Print | Product List | Glossary Off
Versions: 1 2 3 4 5 6 7 8 9 10 11 12 13 14 15 16 17 18 19 20 21 22 23 24 25 26 27 28 29 30 31 32 33 34

000
FTUS43 KDDC 191539 AAA
TAFHYS
TAF AMD
KHYS 191539Z 1916/2012 VRB06KT 5SM BR BKN016
     FM191700 20007KT P6SM FEW030 FEW250=

USA.gov is the U.S. government's official web portal to all federal, state and local government web resources and services.